STARLINK-1356, 45564

Orbit data source: Space-Track

STARLINK-1356, 45564 is a payload satellite owned by SpaceX/Seattle (US) in LEO that was launched on Wed, 22 Apr 2020 UTC via an FALCON 9 launch vehicle from the Air Force Eastern Test Range (AFETR). Payload-class satellites include a variety of spacecraft equipped with specific instruments for various scientific and technological missions. These include communications satellites like Starlink; space stations such as the ISS; scientific satellites like the Hubble; Earth observation satellites from companies like Planet Labs, Umbra, and HawkEye 360; GPS; miniature CubeSats for education and research; and military/defense satellites.

Loading next visibility...
Identifier
45564, 2020-025AK
Orbit
LEO
Country
Flag of USUS
Related business
Manufacturer
SpaceX/Seattle
Mission
Operational Commercial Communications
Bus & Motor
STARLINK, Unknown motor
Mass
260 kg wet, ~248 kg dry
Launch date (UTC)
2020-04-22 (5 years ago)
Launch vehicle
FALCON 9
Launch site
Air Force Eastern Test Range (AFETR)
Object type
Payload
Rocket body
Debris
Shape & HBR
Box + 1 Pan, 10.1 m
Radar Cross Section
13.562 m², Large (>1 m²)

Expand to show TLE details & history
Last TLE update: 16 hours ago

TLE from 16 hours ago
0 STARLINK-1356
1 45564U 20025AK  25287.64408671 -.00001526  00000-0 -83599-4 0  9997
2 45564  53.0563  22.2419 0001489  96.6958 263.4201 15.06383228303353
Epoch: 2025-10-14T15:27Z
TLE epoch observation values (Epoch: 2025-10-14T15:27:29.091Z)
Latitude
0.00001°
Longitude
126.94113°
Altitude
548.261 km
Speed
7.589 km/s
True Right ascension
01h 28m 58s
True Declination
0° 00' 00"
Sunlit
Object was in full shadow at epoch
Visualization orbit readout
Latitude
Unknown
Longitude
Unknown
Altitude
Unknown
Speed
Unknown
Apparent Right ascension
Unknown
Apparent Declination
Unknown
Sunlit
N/A
Visualization observer readout
Local Sidereal Time
02:19:51
Azimuth
Unknown
Elevation
Unknown
Doppler factor
Unknown
Orbital elements
Apogee altitude
548.565 km
Perigee altitude
546.502 km
Semi-major axis
6,925.67 km
Eccentricity
0.00015
Inclination
53.0563°
RAAN
22.2419°
Arg. of periapsis
96.6958°
True anomaly
263.40315°
Mean anomaly
263.4201°
Eccentric anomaly
263.41162°
Mean motion
3.76574 °/min
Orbital period
95.6 mins
BSTAR
-0.000083599
Loading maneuver chart data...
Computing Atmospheric mass density...

Documentation

Showing up to 5 results
|